New Haven, CT

3:28 AM EDT on June 25, 2017 (GMT -0400)
Tweed-New Haven

Weather History for KHVN - April, 2013

Change the Weather History Date:

Monday, April 15, 2013

  Actual Average Record
Temperature  
Mean Temperature 46 °F -  
Max Temperature 54 °F 56 °F 75 °F (1976)
Min Temperature 39 °F 40 °F 32 °F (2005)
Degree Days  
Heating Degree Days 19    
Moisture  
Dew Point 31 °F    
Average Humidity 56    
Maximum Humidity 79    
Minimum Humidity 45    
Precipitation  
Precipitation 0.00 in - - ()
Sea Level Pressure  
Sea Level Pressure 30.34 in    
Wind  
Wind Speed 4 mph (East)    
Max Wind Speed 10 mph    
Max Gust Speed -    
Visibility 10 miles    
Events      
Averages and records for this station are not official NWS values.
T = Trace of Precipitation, MM = Missing Value Source: NWS Daily Summary

Daily Weather History Graph

Daily Weather History Graph

Search for Another Location

Airport or City:

Trip Planner

Search our weather history database for the weather conditions in past years. The results will help you decide how hot, cold, wet, or windy it might be!

Date:

Astronomy

Apr. 15, 2013 Rise Set
Actual Time 6:11 AM EDT 7:31 PM EDT
Civil Twilight 5:43 AM EDT 8:00 PM EDT
Nautical Twilight 5:08 AM EDT 8:35 PM EDT
Astronomical Twilight 4:32 AM EDT 9:11 PM EDT
Moon 9:33 AM EDT (4/15) No Moon Set
Length of Visible Light 14h 17m
Length of Day
13h 20m
Waxing Crescent, 24% of the Moon is Illuminated
Apr 15
Waxing Crescent
Apr 18
First Quarter
Apr 25
Full
May 2
Last Quarter
May 9
New

Hourly Weather History & Observations

Time (EDT) Temp. Windchill Dew Point Humidity Pressure Visibility Wind Dir Wind Speed Gust Speed Precip Events Conditions
12:53 AM 43.0 °F - 25.0 °F 49% 30.25 in 10.0 mi Calm Calm - N/A   Clear
1:53 AM 39.9 °F 37.8 °F 27.0 °F 60% 30.23 in 10.0 mi NNE 3.5 mph - N/A   Clear
2:53 AM 41.0 °F 39.0 °F 27.0 °F 57% 30.24 in 10.0 mi North 3.5 mph - N/A   Clear
3:53 AM 39.0 °F 36.8 °F 26.1 °F 60% 30.25 in 10.0 mi NNE 3.5 mph - N/A   Clear
4:53 AM 39.9 °F - 27.0 °F 60% 30.27 in 10.0 mi Calm Calm - N/A   Clear
5:53 AM 39.9 °F - 27.0 °F 60% 30.31 in 10.0 mi Calm Calm - N/A   Mostly Cloudy
6:53 AM 39.9 °F - 28.0 °F 63% 30.34 in 10.0 mi Calm Calm - N/A   Overcast
7:53 AM 43.0 °F 38.8 °F 28.0 °F 56% 30.35 in 10.0 mi NNE 6.9 mph - N/A   Overcast
8:53 AM 46.0 °F 44.8 °F 27.0 °F 47% 30.38 in 10.0 mi NNE 3.5 mph - N/A   Overcast
9:53 AM 48.0 °F - 28.9 °F 48% 30.39 in 10.0 mi Calm Calm - N/A   Overcast
10:53 AM 48.9 °F - 30.0 °F 48% 30.38 in 10.0 mi East 8.1 mph - N/A   Overcast
11:53 AM 48.9 °F - 30.9 °F 50% 30.38 in 10.0 mi East 10.4 mph - N/A   Overcast
12:53 PM 51.1 °F - 33.1 °F 50% 30.37 in 10.0 mi ESE 9.2 mph - N/A   Overcast
1:53 PM 52.0 °F - 33.1 °F 49% 30.36 in 10.0 mi ESE 9.2 mph - N/A   Mostly Cloudy
2:53 PM 53.1 °F - 35.1 °F 50% 30.35 in 10.0 mi East 9.2 mph - N/A   Clear
3:53 PM 53.1 °F - 34.0 °F 48% 30.34 in 10.0 mi SE 8.1 mph - N/A   Clear
4:53 PM 53.1 °F - 32.0 °F 45% 30.32 in 10.0 mi SE 10.4 mph - N/A   Clear
5:53 PM 53.1 °F - 33.1 °F 47% 30.34 in 10.0 mi ESE 6.9 mph - N/A   Clear
6:53 PM 50.0 °F - 32.0 °F 50% 30.35 in 10.0 mi ESE 5.8 mph - N/A   Clear
7:53 PM 48.9 °F - 34.0 °F 56% 30.36 in 10.0 mi ESE 6.9 mph - N/A   Clear
8:53 PM 48.0 °F - 35.1 °F 61% 30.38 in 10.0 mi SE 8.1 mph - N/A   Clear
9:53 PM 46.9 °F - 36.0 °F 66% 30.39 in 10.0 mi SSE 6.9 mph - N/A   Clear
10:53 PM 45.0 °F 41.8 °F 37.9 °F 76% 30.40 in 10.0 mi SSE 5.8 mph - N/A   Clear
11:53 PM 44.1 °F - 37.9 °F 79% 30.40 in 10.0 mi Calm Calm - N/A   Clear